Waarnemingen

Advertentie
Mijn weer
Isle Of Portland, Groot Brittannië (3857): temperatuur & dauwpunt: 20.09.2018 08:00:00 - 26.09.2018 08:00:00 (BST)Isle Of Portland, Groot Brittannië (3857): windsnelheid & windstoten: 20.09.2018 08:00:00 - 26.09.2018 08:00:00 (BST)Isle Of Portland, Groot Brittannië (3857): windrichting: 20.09.2018 08:00:00 - 26.09.2018 08:00:00 (BST)Isle Of Portland, Groot Brittannië (3857): luchtdruk: 20.09.2018 08:00:00 - 26.09.2018 08:00:00 (BST)Isle Of Portland, Groot Brittannië (3857): zicht: 20.09.2018 08:00:00 - 26.09.2018 08:00:00 (BST)Isle Of Portland, Groot Brittannië (3857): neerslag: 20.09.2018 08:00:00 - 26.09.2018 08:00:00 (BST)
Datum & Tijd tt [°C] td [°C] ff [km/u] ff [kn] fx [km/u] fx [kn] dd ppp [hPa] vv [km] rr [mm]
26.09.2018 08:00:00 - - - - - - - - - 0,0
26.09.2018 07:00:00 13,5 9,1 8 4 - - W 1033,2 45 0,0
26.09.2018 06:00:00 13,5 9,0 9 5 - - W 1033,3 45 0,0
26.09.2018 05:00:00 13,3 9,1 9 5 - - ZW 1033,5 45 0,0
26.09.2018 04:00:00 13,4 8,7 9 5 - - Z 1033,8 45 0,0
26.09.2018 03:00:00 13,4 8,7 9 5 - - Z 1034,0 50 0,0
26.09.2018 02:00:00 13,2 8,3 9 5 - - Z 1034,5 50 0,0
26.09.2018 01:00:00 13,3 7,6 16 9 - - ZZO 1034,5 50 0,0
26.09.2018 00:00:00 12,3 6,2 11 6 - - ZO 1035,2 50 0,0
25.09.2018 23:00:00 12,5 5,9 13 7 - - ZO 1035,4 50 0,0
25.09.2018 22:00:00 12,7 4,8 15 8 - - ZO 1035,5 50 0,0
25.09.2018 21:00:00 12,8 5,0 16 9 - - OZO 1035,5 50 0,0
25.09.2018 20:00:00 11,8 6,0 11 6 - - ZO 1035,6 50 0,0
25.09.2018 19:00:00 12,5 6,5 13 7 - - ZO 1035,7 50 0,0
25.09.2018 18:00:00 13,7 7,5 13 7 - - ZO 1035,8 40 0,0
25.09.2018 17:00:00 14,2 8,1 13 7 - - ZO 1036,3 40 0,0
25.09.2018 16:00:00 15,1 8,0 13 7 - - ZO 1036,5 45 0,0
25.09.2018 15:00:00 15,7 8,4 15 8 - - ZZO 1037,1 35 0,0
25.09.2018 14:00:00 15,8 8,1 15 8 - - Z 1037,7 45 0,0
25.09.2018 13:00:00 16,6 9,1 15 8 - - Z 1038,1 40 0,0
25.09.2018 12:00:00 16,0 8,5 16 9 - - Z 1038,2 45 0,0
25.09.2018 11:00:00 15,8 8,0 16 9 - - Z 1038,3 50 0,0
25.09.2018 10:00:00 15,9 7,1 15 8 - - ZZO 1037,9 35 0,0
25.09.2018 09:00:00 15,0 6,2 16 9 - - ZO 1037,7 30 0,0
25.09.2018 08:00:00 11,3 8,0 16 9 - - NO 1037,8 30 0,0
25.09.2018 07:00:00 10,3 6,9 18 10 - - NO 1037,7 45 0,0
25.09.2018 06:00:00 10,2 6,2 16 9 - - NO 1037,5 45 0,0
25.09.2018 05:00:00 10,3 5,8 16 9 - - NO 1037,6 45 0,0
25.09.2018 04:00:00 10,4 5,5 15 8 - - NO 1038,1 45 0,0
25.09.2018 03:00:00 10,1 5,5 15 8 - - NO 1038,2 50 0,0
25.09.2018 02:00:00 9,9 5,6 15 8 - - NO 1038,5 45 0,0
25.09.2018 01:00:00 10,0 6,5 15 8 - - NNO 1038,8 35 0,0
25.09.2018 00:00:00 10,4 6,5 16 9 - - NNO 1038,9 40 0,0
24.09.2018 23:00:00 10,3 5,6 15 8 - - NNO 1038,9 40 0,0
24.09.2018 22:00:00 10,8 5,2 16 9 - - NNO 1039,0 40 0,0
24.09.2018 21:00:00 11,3 5,0 15 8 - - N 1038,8 45 0,0
24.09.2018 20:00:00 11,7 5,4 13 7 - - NNO 1038,5 40 0,0
24.09.2018 19:00:00 12,9 5,1 16 9 - - N 1038,3 35 0,0
24.09.2018 18:00:00 14,5 4,8 11 6 - - N 1037,9 40 0,0
24.09.2018 17:00:00 14,2 4,3 4 2 - - W 1038,1 50 0,0
24.09.2018 16:00:00 14,0 4,9 8 4 - - NW 1038,5 35 0,0
24.09.2018 15:00:00 14,3 5,2 9 5 - - WNW 1038,6 45 0,0
24.09.2018 14:00:00 14,4 3,9 8 4 - - WNW 1039,4 40 0,0
24.09.2018 13:00:00 15,4 5,4 9 5 - - NNW 1039,4 26 0,0
24.09.2018 12:00:00 14,8 6,0 13 7 - - N 1039,4 30 0,0
24.09.2018 11:00:00 14,2 6,0 16 9 - - NNO 1039,1 27 0,0
24.09.2018 10:00:00 13,0 7,2 16 9 - - N 1039,1 30 0,0
24.09.2018 09:00:00 12,4 6,2 13 7 - - NNO 1038,1 30 0,0
24.09.2018 08:00:00 10,0 5,7 16 9 - - N 1037,6 40 0,0
24.09.2018 07:00:00 8,8 5,1 18 10 - - N 1036,9 40 0,0
24.09.2018 06:00:00 9,2 5,1 22 12 - - N 1036,5 50 0,0
24.09.2018 05:00:00 9,2 5,6 22 12 - - NNW 1036,3 30 0,0
24.09.2018 04:00:00 9,3 5,7 22 12 - - N 1035,8 45 0,0
24.09.2018 03:00:00 9,2 5,6 26 14 - - N 1035,2 40 0,0
24.09.2018 02:00:00 9,5 5,9 22 12 - - N 1035,0 45 0,0
24.09.2018 01:00:00 9,8 6,3 21 11 - - NNW 1034,3 45 0,0
24.09.2018 00:00:00 9,6 5,1 22 12 - - N 1033,1 50 0,0
23.09.2018 23:00:00 10,4 5,4 26 14 - - N 1032,3 40 0,0
23.09.2018 22:00:00 11,0 6,0 31 17 - - NNW 1031,0 30 0,0
23.09.2018 21:00:00 11,5 6,3 34 18 48 26 NNW 1030,1 35 0,0
23.09.2018 20:00:00 12,3 6,3 37 20 55 30 NNW 1028,4 35 0,0
23.09.2018 19:00:00 13,3 5,9 39 21 55 30 NNW 1026,8 35 0,0
23.09.2018 18:00:00 14,1 5,5 42 23 57 31 NNW 1025,4 40 0,0
23.09.2018 17:00:00 14,7 7,6 26 14 - - NNW 1024,5 35 0,0
23.09.2018 16:00:00 14,5 7,0 35 19 50 27 NW 1023,9 50 0,0
23.09.2018 15:00:00 13,6 7,3 37 20 52 28 NNW 1023,1 35 0,0
23.09.2018 14:00:00 13,1 8,1 28 15 46 25 N 1021,7 40 0,0
23.09.2018 13:00:00 11,2 7,4 34 18 48 26 N 1020,5 40 0,2
23.09.2018 12:00:00 9,7 6,7 39 21 54 29 N 1019,9 29 0,0
23.09.2018 11:00:00 10,7 8,9 39 21 54 29 N 1017,2 30 0,0
23.09.2018 10:00:00 10,6 9,5 31 17 52 28 NNO 1015,4 30 0,6
23.09.2018 09:00:00 10,5 10,0 34 18 52 28 N 1014,7 6 3,8
23.09.2018 08:00:00 10,9 10,4 21 11 - - NO 1012,0 6 0,8
23.09.2018 07:00:00 11,1 10,8 22 12 - - NO 1012,3 4,0 0,2
23.09.2018 06:00:00 11,3 10,9 22 12 - - NO 1012,7 3,3 0,0
23.09.2018 05:00:00 11,5 11,2 22 12 - - NO 1012,5 16 0,0
23.09.2018 04:00:00 11,9 11,5 24 13 - - ONO 1012,6 16 0,0
23.09.2018 03:00:00 12,1 11,6 28 15 - - ONO 1012,4 50 0,0
23.09.2018 02:00:00 12,0 11,7 29 16 - - ONO 1012,7 10 0,0
23.09.2018 01:00:00 12,0 11,8 29 16 - - ONO 1012,1 3,8 0,2
23.09.2018 00:00:00 12,0 11,8 31 17 - - ONO 1012,0 5 0,0
22.09.2018 23:00:00 12,5 12,3 35 19 - - ONO 1011,2 7 0,0
22.09.2018 22:00:00 12,9 12,5 34 18 - - ONO 1011,1 6 0,0
22.09.2018 21:00:00 12,8 12,5 35 19 50 27 ONO 1010,3 10 0,2
22.09.2018 20:00:00 14,0 13,7 37 20 50 27 ONO 1009,9 6 0,0
22.09.2018 19:00:00 14,0 13,8 41 22 61 33 O 1009,4 3,2 1,0
22.09.2018 18:00:00 13,1 12,8 50 27 65 35 O 1010,0 3,4 1,4
22.09.2018 17:00:00 12,8 12,5 48 26 63 34 OZO 1011,3 3,1 2,0
22.09.2018 16:00:00 12,3 11,9 39 21 57 31 ZO 1012,8 8 2,0
22.09.2018 15:00:00 12,1 11,9 42 23 54 29 OZO 1014,4 3,7 1,4
22.09.2018 14:00:00 11,8 11,4 39 21 52 28 OZO 1016,1 5 1,6
22.09.2018 13:00:00 11,3 10,4 26 14 - - OZO 1017,6 4,1 0,8
22.09.2018 12:00:00 11,4 10,5 18 10 - - O 1019,0 10 1,0
22.09.2018 11:00:00 11,2 9,9 9 5 - - OZO 1019,7 15 1,0
22.09.2018 10:00:00 11,3 9,3 8 4 - - ZZW 1020,5 14 0,4
22.09.2018 09:00:00 12,7 7,4 16 9 - - WNW 1019,9 24 0,2
22.09.2018 08:00:00 12,3 8,1 21 11 - - NW 1020,3 30 0,6
22.09.2018 07:00:00 13,8 5,3 29 16 - - W 1020,1 22 0,0
22.09.2018 06:00:00 14,3 9,3 34 18 - - W 1020,0 21 0,0
22.09.2018 05:00:00 14,2 9,5 28 15 - - W 1019,9 20 0,0
22.09.2018 04:00:00 14,1 8,9 29 16 46 25 W 1020,4 20 0,0
22.09.2018 03:00:00 14,2 9,1 34 18 48 26 W 1020,4 24 0,0
22.09.2018 02:00:00 14,1 9,0 35 19 46 25 W 1020,4 21 0,0
22.09.2018 01:00:00 14,1 9,3 34 18 46 25 W 1020,1 22 0,0
22.09.2018 00:00:00 14,1 9,3 35 19 54 29 W 1020,2 24 0,0
21.09.2018 23:00:00 14,1 9,4 39 21 50 27 W 1019,7 25 0,0
21.09.2018 22:00:00 14,0 8,6 31 17 50 27 W 1019,0 22 0,0
21.09.2018 21:00:00 14,2 8,3 35 19 59 32 W 1018,7 20 0,0
21.09.2018 20:00:00 14,5 7,8 46 25 59 32 W 1017,8 29 0,0
21.09.2018 19:00:00 14,6 8,2 46 25 67 36 W 1017,1 24 0,0
21.09.2018 18:00:00 15,2 7,8 50 27 65 35 W 1015,8 19 0,0
21.09.2018 17:00:00 15,5 7,6 48 26 65 35 W 1015,4 19 0,0
21.09.2018 16:00:00 15,9 6,8 52 28 70 38 W 1014,6 30 0,0
21.09.2018 15:00:00 16,6 6,9 55 30 74 40 W 1014,3 17 0,0
21.09.2018 14:00:00 15,6 6,9 55 30 76 41 W 1013,5 18 0,0
21.09.2018 13:00:00 15,0 6,3 54 29 74 40 W 1012,9 30 0,0
21.09.2018 12:00:00 14,5 8,4 52 28 72 39 W 1012,5 29 0,0
21.09.2018 11:00:00 13,9 7,0 54 29 72 39 W 1011,5 26 0,0
21.09.2018 10:00:00 13,5 7,3 54 29 74 40 W 1011,1 22 0,0
21.09.2018 09:00:00 13,0 6,8 54 29 68 37 W 1009,9 29 0,0
21.09.2018 08:00:00 12,8 7,4 54 29 76 41 W 1008,8 24 0,0
21.09.2018 07:00:00 12,2 7,8 48 26 67 36 WNW 1007,7 27 0,0
21.09.2018 06:00:00 12,3 8,7 54 29 78 42 WNW 1006,5 30 0,0
21.09.2018 05:00:00 12,7 8,7 65 35 80 43 WNW 1004,5 19 0,0
21.09.2018 04:00:00 13,7 9,3 57 31 76 41 WNW 1003,1 22 0,0
21.09.2018 03:00:00 14,5 11,3 63 34 76 41 W 1002,1 16 0,0
21.09.2018 02:00:00 15,1 12,0 55 30 80 43 W 1001,3 16 0,2
21.09.2018 01:00:00 15,7 15,5 54 29 98 53 W 1000,4 9 4,0
21.09.2018 00:00:00 17,2 16,7 65 35 93 50 ZW 1000,4 2,3 1,0
20.09.2018 23:00:00 17,4 16,5 67 36 93 50 ZZW 1000,8 5 1,4
20.09.2018 22:00:00 17,1 16,1 59 32 76 41 ZZW 1002,7 4,0 0,6
20.09.2018 21:00:00 17,9 16,4 52 28 78 42 ZZW 1004,1 9 0,0
20.09.2018 20:00:00 18,1 16,4 46 25 70 38 ZZW 1005,0 10 0,0
20.09.2018 19:00:00 18,0 16,3 41 22 57 31 ZW 1006,5 11 0,0
20.09.2018 18:00:00 18,0 16,1 39 21 65 35 ZZW 1007,2 9 0,0
20.09.2018 17:00:00 18,3 16,1 42 23 61 33 ZW 1008,3 11 0,0
20.09.2018 16:00:00 18,6 16,0 44 24 61 33 ZW 1009,4 11 0,0
20.09.2018 15:00:00 18,8 16,1 42 23 59 32 ZZW 1010,2 10 0,0
20.09.2018 14:00:00 18,9 15,8 39 21 57 31 ZZW 1010,7 12 0,0
20.09.2018 13:00:00 18,4 16,1 41 22 59 32 ZZW 1011,4 10 0,0
20.09.2018 12:00:00 18,2 15,9 39 21 55 30 ZZW 1011,9 9 0,0
20.09.2018 11:00:00 17,8 16,0 41 22 57 31 ZW 1012,3 11 0,0
20.09.2018 10:00:00 17,7 16,3 44 24 59 32 ZW 1012,7 9 0,0
20.09.2018 09:00:00 17,1 16,3 41 22 57 31 ZW 1012,7 9 0,0
20.09.2018 08:00:00 16,9 16,1 41 22 59 32 ZW 1012,5 8 0,0

tt = temperatuur
td = dauwpunt
ff = windsnelheid
fx = windstoten
dd = windrichting
ppp = luchtdruk
vv = zicht
rr = neerslag

Weerstations in de omgeving